Wind_Speed
5 2 3 3 2 1 2 1 1 1 1 2 2 2 4 5 6 9 8 8 6 9 12 10 10 13 12 13 15 16 16 11 15 20 22 23 24 23 24 24 23 25 17
8 4 6 3 1 2 4 3 2 1 3 4 6 7 9 8 9 10 11 13 12 13 14 11 15 14 14 16 18 18 19 21 19 17 21 25 28 29 28 28 27 22 19
6 4 5 2 3 3 1 3 2 2 4 6 9 10 13 16 10 12 12 12 15 15 16 15 16 17 17 18 17 18 20 21 22 21 19 23 29 31 36 31 29 27 26
5 3 2 4 1 0 1 2 2 2 3 6 9 12 14 16 11 12 14 18 20 19 17 16 17 19 20 19 19 17 16 20 22 24 24 23 23 30 34 30 30 31 35
7 7 7 4 3 3 1 2 4 7 8 9 10 12 13 12 12 13 15 19 18 17 18 19 20 21 21 21 22 18 16 17 22 24 26 27 26 27 27 35 38 30 32
7 3 3 2 3 4 4 6 8 11 13 14 14 15 12 9 14 14 15 16 18 22 17 19 22 24 22 21 20 20 19 18 18 21 24 26 26 26 27 29 35 27 22
5 2 2 3 4 6 7 8 9 12 13 18 19 19 15 11 15 14 18 22 21 25 16 17 22 23 22 21 21 22 21 17 18 19 23 25 21 20 20 25 27 32 24
3 1 1 2 3 5 7 10 13 14 15 19 19 20 19 15 16 19 29 19 20 18 18 18 21 22 22 20 21 20 20 18 18 18 23 27 24 24 24 25 26 30 34
2 2 4 5 5 6 9 11 15 17 19 18 18 20 19 19 21 24 27 13 20 17 19 21 23 22 20 19 21 19 18 17 18 20 21 28 23 25 24 21 24 26 29
4 5 5 7 9 11 13 14 17 19 21 19 19 19 20 21 23 26 28 10 18 17 18 21 23 20 19 19 21 22 17 19 15 19 20 21 23 20 22 17 21 36 17
7 9 11 12 11 12 13 15 18 19 22 21 21 20 19 20 23 24 10 6 14 17 16 21 23 18 19 26 21 21 19 17 12 17 22 22 21 23 26 21 20 24 25
12 13 13 14 15 16 17 18 19 21 21 24 21 20 21 21 20 19 25 20 12 14 16 18 18 19 24 21 19 20 17 11 12 14 17 20 24 21 23 24 22 17 20
14 16 17 18 18 20 21 22 22 24 23 24 23 22 29 25 26 25 22 16 11 12 14 14 18 21 22 16 18 19 11 10 11 12 14 18 21 25 27 27 21 21 19
15 18 20 21 22 24 24 24 26 26 26 26 27 32 31 32 24 23 24 18 15 15 15 15 18 20 20 18 19 20 10 11 10 13 18 19 18 17 21 28 22 24 21
17 20 21 23 24 26 26 27 26 25 26 28 31 36 45 45 30 19 19 20 13 20 17 17 18 19 21 15 10 7 9 11 6 10 12 13 16 17 18 22 24 26 23
14 17 20 21 22 23 22 20 19 20 23 28 32 36 37 32 32 16 12 12 13 19 19 19 18 18 16 14 5 5 9 10 10 11 11 11 13 16 18 23 28 26 25
14 15 16 18 18 18 21 20 18 21 21 24 30 35 32 30 25 14 12 15 12 18 19 19 17 16 10 4 1 6 6 6 9 10 11 14 14 13 19 28 28 27 26
16 16 17 18 18 18 18 18 20 24 26 28 34 29 27 30 25 21 14 13 11 16 18 18 14 11 11 5 3 4 3 4 4 7 9 14 16 17 23 28 28 26 26
13 16 19 21 22 22 23 25 30 29 25 27 29 25 24 27 21 21 11 11 13 15 16 16 10 9 11 10 5 9 7 1 5 9 11 16 20 20 24 27 29 24 24
20 21 21 23 27 26 27 30 32 28 29 29 23 21 22 23 17 16 15 11 11 15 15 15 8 9 16 10 4 7 5 5 2 4 12 16 21 24 24 27 27 24 26
23 22 26 23 23 26 25 25 24 22 20 16 17 19 19 23 21 17 13 12 16 15 15 14 7 5 7 8 9 6 6 8 5 6 7 15 21 24 23 25 27 25 25
22 25 23 22 21 22 19 18 17 14 13 13 15 15 19 20 18 16 14 13 17 13 14 12 8 2 8 9 6 7 8 4 3 5 9 14 21 24 23 24 27 27 25
22 24 20 17 16 14 14 15 12 12 12 13 14 16 15 16 19 19 16 11 12 10 11 10 8 1 6 2 2 4 3 3 2 5 11 15 20 23 23 24 28 26 25
23 17 14 11 11 12 13 13 12 10 10 10 12 15 16 21 23 19 13 9 7 7 7 9 8 3 4 5 2 5 6 2 7 5 13 15 18 22 24 26 27 27 24
17 12 9 10 13 13 12 12 10 7 9 12 13 16 20 22 19 11 7 4 8 6 3 7 6 3 1 3 3 3 3 5 3 5 12 17 19 21 24 27 28 27 27
16 14 12 13 15 15 15 12 11 11 11 12 13 16 18 19 17 9 9 6 8 5 1 4 5 4 1 2 2 4 4 3 6 7 12 16 22 24 25 26 26 27 28
Wind_Direction
124 138 97 37 14 60 190 126 176 232 360 103 150 208 228 228 242 245 244 256 266 289 289 292 278 284 278 281 288 267 254 240 250 241 232 233 239 232 227 229 230 221 203
147 100 125 98 59 96 143 159 85 329 309 310 310 309 299 285 268 254 269 274 266 270 279 278 286 290 290 290 283 277 262 254 262 252 242 234 233 235 230 222 227 223 211
160 138 100 44 45 41 72 224 246 266 295 310 306 292 285 286 275 276 271 282 277 272 278 283 288 291 295 296 290 277 262 252 254 256 246 237 234 236 250 221 218 222 215
162 147 145 160 129 83 244 239 245 261 287 299 303 300 299 287 281 280 275 274 273 270 273 283 287 289 295 301 300 287 275 252 243 245 249 247 240 235 235 234 225 234 221
150 140 140 155 136 104 168 255 293 313 311 316 323 313 300 282 265 274 278 283 277 272 281 280 285 290 293 297 299 294 281 253 257 243 243 243 240 238 235 231 234 235 229
169 169 198 97 38 2 345 328 317 317 316 325 327 321 313 284 277 295 288 292 284 277 271 275 283 288 285 292 288 288 286 284 271 249 241 236 240 236 231 229 232 242 242
167 171 168 255 304 281 290 297 312 316 320 324 326 323 319 288 295 282 300 284 276 276 271 275 281 287 282 285 282 281 278 277 272 248 234 233 229 227 223 225 230 229 209
155 153 278 254 256 282 288 311 323 318 321 321 321 321 323 319 300 274 303 289 292 285 282 286 287 285 280 275 276 278 274 273 263 246 233 224 229 239 242 234 225 226 222
241 277 270 277 273 286 306 317 321 326 325 325 327 323 321 324 319 285 319 297 304 299 278 284 288 287 284 282 276 274 271 269 263 241 227 229 233 240 237 228 221 219 222
264 291 300 295 303 296 307 312 318 323 325 323 325 328 327 323 320 318 325 314 287 298 285 288 290 292 289 276 279 273 273 264 260 239 228 223 227 228 220 216 221 222 219
263 274 286 285 295 306 312 314 313 316 318 321 318 324 322 318 319 320 321 316 305 292 292 290 288 293 275 289 271 269 269 282 246 233 228 227 229 226 225 220 219 216 218
264 277 284 291 299 305 310 310 311 314 314 311 313 316 302 293 297 307 310 325 292 296 292 294 299 297 299 288 272 261 255 260 234 227 233 227 219 222 215 216 221 210 213
279 281 290 295 300 303 304 308 306 307 307 305 307 299 298 314 312 309 310 343 13 322 307 308 302 296 295 294 266 259 250 241 216 214 223 224 223 229 227 211 219 209 205
288 287 288 293 295 295 297 300 300 305 305 306 304 296 299 305 310 317 307 302 359 341 333 316 302 301 296 292 269 259 267 218 209 229 234 227 226 224 215 210 207 204 201
284 284 286 287 289 293 299 303 308 312 313 312 303 307 330 312 303 318 308 330 335 343 338 329 319 312 302 283 276 302 222 203 205 223 214 205 212 205 204 206 195 196 194
293 290 289 293 297 301 304 305 311 315 314 321 333 336 335 323 322 331 321 342 338 335 338 333 334 320 316 297 272 212 214 197 187 206 227 205 200 196 196 190 185 189 190
304 314 310 307 307 307 306 312 315 311 318 328 330 332 333 340 344 339 338 354 340 333 340 341 343 336 340 11 249 203 216 177 201 219 229 210 200 195 179 179 183 185 187
296 301 308 312 316 317 311 314 315 312 312 318 327 328 331 337 335 337 347 352 345 336 344 349 352 1 23 35 70 143 148 156 186 195 191 190 187 180 171 174 180 185 185
300 300 305 310 309 310 307 305 306 303 307 312 315 319 322 331 331 335 349 355 347 340 350 359 4 39 56 68 103 138 145 160 128 164 167 174 177 172 171 176 180 179 184
293 300 305 307 308 308 305 302 302 300 300 303 308 321 320 328 329 334 336 328 328 343 356 2 9 78 63 66 120 127 143 160 118 129 163 166 170 171 174 181 180 175 183
286 298 310 312 313 311 309 309 315 317 311 305 311 323 318 322 325 318 310 313 317 345 356 0 360 85 75 62 90 160 128 163 190 212 173 169 170 173 175 180 180 177 181
286 303 307 310 317 318 322 322 328 328 326 326 329 325 319 320 320 311 300 303 312 344 349 356 351 104 92 71 68 97 103 127 133 144 169 171 171 176 179 181 182 183 183
290 301 304 315 330 331 332 337 341 347 346 338 335 331 330 333 324 308 295 297 313 333 339 350 342 290 134 125 141 135 138 152 118 159 173 173 178 180 183 184 188 190 187
288 293 306 313 320 326 322 326 328 337 342 349 349 346 340 334 322 302 289 296 272 313 331 344 334 314 149 162 75 139 148 157 196 173 179 177 180 183 185 187 189 194 201
276 277 288 305 311 316 322 329 328 329 343 341 340 342 339 341 338 323 287 250 270 278 322 332 333 337 146 151 164 154 186 189 204 196 190 184 184 189 194 195 199 201 198
273 269 282 291 299 305 308 314 316 313 319 326 331 335 343 352 356 9 348 267 246 246 268 319 342 340 131 133 153 200 189 231 206 205 203 196 194 190 192 191 192 191 189
Height
3205 3206 3207 3207 3207 3206 3205 3205 3205 3205 3205 3205 3204 3204 3203 3202 3201 3200 3198 3198 3197 3196 3195 3195 3193 3191 3191 3190 3190 3188 3190 3190 3191 3192 3193 3194 3196 3197 3201 3202 3206 3208 3212
3206 3206 3207 3208 3208 3207 3207 3206 3206 3206 3204 3204 3203 3202 3201 3200 3199 3198 3198 3196 3195 3193 3192 3190 3189 3189 3188 3187 3187 3186 3187 3187 3189 3190 3190 3191 3192 3193 3197 3199 3203 3207 3209
3207 3207 3207 3208 3208 3207 3207 3207 3206 3206 3205 3203 3202 3201 3199 3197 3195 3194 3193 3192 3191 3190 3188 3186 3186 3184 3183 3182 3181 3180 3180 3181 3182 3184 3185 3185 3187 3190 3186 3195 3198 3202 3205
3207 3208 3208 3209 3209 3208 3207 3206 3206 3206 3205 3203 3201 3198 3195 3193 3192 3190 3188 3187 3186 3185 3183 3182 3181 3179 3178 3176 3175 3174 3173 3174 3176 3177 3177 3179 3183 3185 3187 3192 3195 3200 3200
3208 3208 3209 3209 3208 3207 3207 3207 3206 3206 3204 3202 3200 3196 3193 3191 3190 3187 3184 3183 3182 3180 3178 3178 3177 3175 3173 3170 3170 3169 3169 3169 3170 3170 3170 3170 3174 3179 3182 3186 3188 3191 3196
3208 3208 3209 3208 3207 3207 3207 3206 3205 3203 3201 3199 3196 3194 3192 3190 3186 3184 3183 3180 3178 3175 3174 3174 3173 3172 3168 3166 3164 3164 3163 3163 3162 3162 3162 3163 3167 3171 3173 3178 3181 3186 3191
3208 3208 3207 3207 3206 3207 3206 3206 3204 3201 3198 3196 3193 3191 3188 3186 3184 3181 3179 3175 3170 3169 3169 3168 3168 3167 3165 3160 3160 3159 3158 3158 3157 3156 3157 3158 3162 3165 3169 3173 3177 3182 3186
3208 3208 3208 3208 3208 3207 3206 3205 3203 3199 3197 3194 3190 3187 3185 3184 3181 3177 3172 3168 3166 3163 3163 3164 3163 3160 3159 3156 3154 3153 3153 3152 3152 3151 3152 3152 3157 3160 3164 3169 3173 3178 3183
3208 3208 3208 3207 3207 3206 3205 3204 3202 3198 3195 3191 3187 3185 3182 3179 3176 3173 3167 3163 3161 3160 3160 3160 3158 3156 3152 3150 3149 3148 3147 3147 3146 3146 3149 3149 3152 3157 3160 3164 3169 3172 3175
3208 3207 3207 3207 3206 3204 3203 3202 3200 3196 3192 3188 3186 3183 3180 3177 3172 3168 3159 3161 3156 3156 3155 3155 3152 3148 3147 3145 3144 3141 3141 3141 3139 3141 3144 3146 3149 3153 3156 3161 3165 3168 3166
3207 3207 3207 3206 3205 3202 3201 3199 3197 3194 3190 3187 3182 3181 3177 3173 3169 3165 3159 3156 3154 3151 3151 3149 3145 3145 3143 3140 3136 3136 3136 3136 3135 3137 3140 3143 3145 3149 3154 3159 3163 3167 3171
3206 3205 3205 3204 3202 3200 3198 3196 3194 3191 3187 3183 3179 3176 3172 3165 3162 3158 3156 3151 3148 3148 3145 3141 3140 3139 3136 3133 3131 3130 3130 3131 3132 3135 3136 3140 3143 3147 3151 3155 3160 3166 3170
3203 3203 3202 3200 3199 3197 3195 3192 3190 3187 3184 3179 3175 3170 3162 3162 3160 3155 3150 3148 3146 3145 3141 3138 3136 3133 3131 3129 3125 3124 3123 3127 3129 3132 3135 3136 3139 3143 3148 3153 3157 3163 3167
3201 3199 3197 3197 3195 3192 3191 3189 3186 3184 3180 3176 3171 3164 3158 3154 3151 3148 3145 3141 3143 3140 3136 3135 3132 3128 3125 3123 3122 3121 3121 3125 3128 3130 3132 3135 3136 3141 3143 3150 3155 3161 3167
3197 3196 3194 3193 3191 3189 3188 3186 3184 3182 3178 3174 3167 3160 3155 3134 3144 3142 3141 3137 3138 3137 3134 3132 3127 3123 3119 3118 3116 3115 3118 3123 3126 3128 3129 3132 3135 3139 3141 3146 3154 3159 3165
3193 3192 3191 3189 3188 3187 3185 3182 3180 3177 3173 3170 3164 3158 3154 3148 3140 3136 3137 3136 3136 3134 3131 3128 3123 3120 3116 3114 3113 3114 3116 3119 3123 3125 3128 3130 3133 3137 3140 3145 3152 3158 3164
3190 3190 3188 3187 3185 3184 3181 3179 3177 3173 3169 3165 3161 3156 3152 3147 3139 3141 3136 3133 3134 3132 3129 3125 3121 3118 3115 3114 3113 3114 3114 3115 3120 3123 3125 3127 3131 3134 3137 3143 3151 3156 3163
3188 3187 3186 3185 3183 3181 3179 3176 3174 3170 3166 3163 3158 3154 3150 3145 3142 3139 3136 3133 3132 3130 3126 3123 3121 3118 3115 3114 3113 3114 3115 3117 3119 3121 3122 3125 3129 3133 3137 3143 3150 3155 3162
3185 3184 3183 3181 3179 3176 3174 3171 3168 3165 3162 3159 3155 3151 3148 3144 3140 3137 3135 3133 3131 3128 3125 3122 3121 3119 3115 3115 3115 3117 3118 3117 3118 3119 3122 3124 3128 3133 3137 3143 3149 3155 3161
3183 3182 3179 3177 3174 3172 3169 3166 3162 3159 3157 3155 3151 3149 3146 3143 3138 3136 3135 3133 3129 3127 3124 3122 3121 3120 3117 3118 3117 3117 3119 3119 3120 3120 3122 3125 3129 3133 3138 3143 3149 3155 3160
3179 3177 3175 3172 3170 3167 3163 3159 3157 3154 3151 3149 3148 3146 3144 3141 3137 3134 3132 3132 3130 3126 3124 3122 3122 3121 3119 3119 3120 3119 3119 3120 3120 3122 3123 3126 3129 3133 3138 3144 3150 3155 3160
3174 3173 3171 3169 3166 3162 3159 3156 3154 3150 3148 3146 3145 3144 3141 3139 3135 3132 3131 3130 3129 3126 3124 3122 3122 3121 3120 3120 3120 3120 3119 3120 3121 3121 3123 3126 3130 3134 3139 3145 3150 3154 3159
3170 3169 3167 3164 3162 3160 3157 3154 3151 3148 3146 3144 3144 3142 3140 3137 3133 3130 3128 3128 3127 3125 3124 3123 3121 3122 3121 3120 3120 3120 3121 3121 3121 3122 3124 3126 3129 3133 3139 3145 3149 3155 3159
3165 3164 3162 3161 3159 3157 3154 3151 3148 3146 3144 3143 3141 3140 3137 3134 3129 3125 3125 3126 3125 3125 3124 3123 3121 3122 3120 3120 3120 3121 3122 3122 3122 3122 3124 3127 3129 3133 3137 3142 3147 3152 3158
3159 3159 3158 3157 3155 3154 3151 3148 3146 3144 3143 3141 3139 3137 3134 3130 3126 3122 3122 3124 3124 3124 3123 3122 3122 3122 3121 3120 3121 3122 3123 3123 3122 3122 3123 3126 3129 3132 3135 3140 3145 3149 3154
3153 3154 3154 3153 3152 3151 3149 3147 3144 3142 3140 3139 3138 3135 3132 3128 3124 3122 3122 3122 3122 3123 3123 3123 3122 3123 3122 3120 3120 3121 3122 3123 3122 3122 3123 3125 3127 3130 3133 3138 3142 3147 3152